Bryce, UT

9:58 AM MDT on July 23, 2016 (GMT -0600)
Bryce Canyon

Weather History for KBCE - December, 2011

Change the Weather History Date:

Thursday, December 15, 2011

  Actual Average Record
Temperature  
Mean Temperature 8 °F -  
Max Temperature 26 °F 37 °F 54 °F (1988)
Min Temperature -9 °F 11 °F -20 °F (2008)
Degree Days  
Heating Degree Days 56    
Moisture  
Dew Point 2 °F    
Average Humidity 93    
Maximum Humidity 100    
Minimum Humidity 84    
Precipitation  
Precipitation 0.00 in - - ()
Sea Level Pressure  
Sea Level Pressure 30.28 in    
Wind  
Wind Speed 4 mph (SW)    
Max Wind Speed 8 mph    
Max Gust Speed -    
Visibility 6 miles    
Events Fog    
Averages and records for this station are not official NWS values.
T = Trace of Precipitation, MM = Missing Value Source: NWS Daily Summary

Daily Weather History Graph

Daily Weather History Graph

Search for Another Location

Airport or City:

Trip Planner

Search our weather history database for the weather conditions in past years. The results will help you decide how hot, cold, wet, or windy it might be!

Date:

Astronomy

Dec. 15, 2011 Rise Set
Actual Time 7:36 AM MST 5:10 PM MST
Civil Twilight 7:07 AM MST 5:40 PM MST
Nautical Twilight 6:34 AM MST 6:13 PM MST
Astronomical Twilight 6:02 AM MST 6:45 PM MST
Moon 10:36 PM MST (12/15) 10:58 AM MST (12/15)
Length of Visible Light 10h 33m
Length of Day
9h 34m
Waning Gibbous, 74% of the Moon is Illuminated
Dec 15
Waning Gibbous
Dec 17
Last Quarter
Dec 24
New
Dec 31
First Quarter
Jan 9
Full

Hourly Weather History & Observations

Time (MST) Temp. Windchill Dew Point Humidity Pressure Visibility Wind Dir Wind Speed Gust Speed Precip Events Conditions
12:53 AM -0.9 °F -11.0 °F -0.9 °F 100% 30.27 in 10.0 mi SW 4.6 mph - N/A   Clear
1:53 AM 5.0 °F -8.1 °F 3.0 °F 92% 30.23 in 10.0 mi West 8.1 mph - N/A   Clear
2:53 AM -0.9 °F - -2.9 °F 91% 30.25 in 10.0 mi Calm Calm - N/A   Clear
3:53 AM -0.0 °F -13.0 °F -2.0 °F 91% 30.25 in 10.0 mi West 6.9 mph - N/A   Clear
4:53 AM -4.0 °F -12.4 °F -6.0 °F 91% 30.27 in 10.0 mi West 3.5 mph - N/A   Clear
5:53 AM -8.0 °F - -9.9 °F 91% 30.31 in 10.0 mi Calm Calm - N/A   Clear
6:53 AM -8.0 °F -19.2 °F -9.9 °F 91% 30.34 in 10.0 mi West 4.6 mph - N/A   Clear
7:53 AM -9.0 °F -20.4 °F -11.0 °F 91% 30.38 in 10.0 mi WSW 4.6 mph - N/A   Clear
8:53 AM -4.0 °F -12.4 °F -5.1 °F 95% 30.37 in 10.0 mi SW 3.5 mph - N/A   Clear
9:53 AM 3.0 °F -4.4 °F 1.9 °F 95% 30.37 in 10.0 mi SW 3.5 mph - N/A   Clear
10:53 AM 10.9 °F - 8.1 °F 88% 30.33 in 10.0 mi Calm Calm - N/A   Clear
12:53 PM 26.1 °F 18.4 °F 21.9 °F 84% 30.25 in 10.0 mi SE 6.9 mph - N/A   Clear
1:53 PM 26.1 °F 18.4 °F 21.9 °F 84% 30.20 in 10.0 mi SE 6.9 mph - N/A   Clear
2:53 PM 26.1 °F 18.4 °F 23.0 °F 88% 30.24 in 10.0 mi SSE 6.9 mph - N/A   Partly Cloudy
3:53 PM 25.0 °F 17.1 °F 21.9 °F 88% 30.25 in 10.0 mi SSE 6.9 mph - N/A   Clear
4:53 PM 26.1 °F - 21.9 °F 84% 30.28 in 10.0 mi Calm Calm - N/A   Clear
5:53 PM 12.0 °F - 12.0 °F 100% 30.40 in 10.0 mi Calm Calm - N/A   Clear
6:07 PM 10.4 °F - 10.4 °F 100% 30.15 in 1.8 mi Calm Calm - N/A   Clear
6:13 PM 8.6 °F - 8.6 °F 100% 30.15 in 0.8 mi Calm Calm - N/A   Mist
6:49 PM 1.4 °F - 1.4 °F 100% 30.16 in 0.2 mi Calm Calm - N/A Fog Light Freezing Fog
6:53 PM 1.9 °F - 1.0 °F 96% 30.47 in 0.2 mi Calm Calm - N/A Fog Light Freezing Fog
7:53 PM -2.9 °F -13.3 °F -2.9 °F 100% 30.53 in 0.2 mi SW 4.6 mph - N/A Fog Light Freezing Fog
8:39 PM -0.4 °F -12.0 °F -2.2 °F 92% 30.19 in 0.8 mi WSW 5.8 mph - N/A   Mist
8:53 PM -2.0 °F -12.2 °F -2.0 °F 100% 30.51 in 0.5 mi SSW 4.6 mph - N/A Fog Light Freezing Fog
9:07 PM -0.4 °F -12.0 °F -2.2 °F 92% 30.19 in 2.0 mi SW 5.8 mph - N/A   Overcast
9:13 PM -0.4 °F -12.0 °F -0.4 °F 100% 30.19 in 0.8 mi WSW 5.8 mph - N/A   Overcast
9:28 PM -2.2 °F -14.2 °F -2.2 °F 100% 30.20 in 1.5 mi WSW 5.8 mph - N/A   Mostly Cloudy
9:32 PM -0.4 °F -12.0 °F -2.2 °F 92% 30.20 in 3.0 mi WSW 5.8 mph - N/A   Mostly Cloudy
9:53 PM -0.0 °F -11.6 °F -2.0 °F 91% 30.45 in 10.0 mi SW 5.8 mph - N/A   Mostly Cloudy
9:59 PM -0.4 °F -12.0 °F -2.2 °F 92% 30.20 in 2.0 mi SSW 5.8 mph - N/A   Scattered Clouds
10:14 PM -0.4 °F -10.4 °F -2.2 °F 92% 30.20 in 1.0 mi SW 4.6 mph - N/A   Mist
10:21 PM -0.4 °F -12.0 °F -2.2 °F 92% 30.21 in 0.5 mi WSW 5.8 mph - N/A Fog Light Freezing Fog
10:25 PM 1.4 °F -11.3 °F -0.4 °F 92% 30.21 in 1.2 mi WSW 6.9 mph - N/A   Partly Cloudy
10:28 PM 1.4 °F -8.3 °F -0.4 °F 92% 30.21 in 4.0 mi SW 4.6 mph - N/A   Partly Cloudy
10:53 PM -0.9 °F -12.7 °F -2.9 °F 91% 30.43 in 10.0 mi WSW 5.8 mph - N/A   Clear
11:08 PM 1.4 °F -9.9 °F -0.4 °F 92% 30.23 in 10.0 mi West 5.8 mph - N/A   Partly Cloudy
11:53 PM 1.0 °F -6.7 °F -0.0 °F 95% 30.38 in 10.0 mi WSW 3.5 mph - N/A   Clear